Meteo Giornale » Osservazioni meteo Stati Uniti (USA) » Islip Long Island Mac Arthur

ore: 18:56 - Osservazioni Meteo Islip Long Island Mac Arthur
Lat. 40° 47' N Lon. 73° 6' W Alt. 30 metri s.l.m.

nuvoloso America/New_York

21 °C

Nuvoloso

Temp. 24 Ore

18 °C

21 °C

Sud

18.5 Km/h

Dew point 14 °C

Umidità 64 %

Visibilità  10 Km

Il sole sorge alle ore 05:18

Il sole tramonta alle ore 20:26

Data e Ora Cielo e Fenomeni T °C DP °C Um. % Pres. hPa Vis. km Vento km/h
Oggi h: 18:56 nuvoloso Nuvoloso 21 14 64 1008 10 S 18.5
Oggi h: 17:56 coperto Coperto 21 14 64 1009 10 S 11.1
Oggi h: 16:56 coperto Coperto 21 15 68 1009 10 S/SE 18.5
Oggi h: 15:56 coperto Coperto 21 17 77 1010 10 S/SE 16.7
Oggi h: 14:56 coperto Coperto 21 17 77 1010 10 S 14.8
Oggi h: 13:56 coperto Coperto 21 17 77 1010 10 S/SE 16.7
Oggi h: 11:56 coperto Coperto 19 16 82 1012 10 S 14.8
Oggi h: 10:56 coperto Coperto 19 16 82 1012 10 S/SE 11.1
Oggi h: 09:56 coperto Coperto 19 17 88 1012 10 S 13
Oggi h: 08:56 coperto_pioggia Pioggia Debole 19 16 82 1012 10 S 11.1
Oggi h: 07:56 coperto Coperto 18 16 88 1012 10 S 16.7
Oggi h: 06:56 nuvoloso Nuvoloso 18 17 93 1012 10 S 14.8
Oggi h: 05:56 molto_nuvoloso Molto Nuvoloso 18 17 93 1012 10 S/SE 14.8
Oggi h: 04:56 sereno Sereno 18 17 93 1011 10 S/SE 11.1
Oggi h: 03:56 molto_nuvoloso Molto Nuvoloso 18 17 93 1011 10 S/SE 11.1
Oggi h: 02:56 coperto Coperto 18 17 93 1012 10 S 11.1
Oggi h: 01:56 coperto Coperto 18 16 88 1012 10 S 13
Oggi h: 00:56 molto_nuvoloso Molto Nuvoloso 18 16 88 1012 10 S 11.1
Ieri h: 23:56 coperto Coperto 18 16 88 1013 10 S/SO 11.1
Ieri h: 22:56 coperto Coperto 18 15 82 1013 10 S 11.1
Ieri h: 21:56 coperto Coperto 18 14 77 1013 10 S 14.8
Ieri h: 20:56 coperto Coperto 18 14 77 1012 10 S 16.7
Ieri h: 19:56 molto_nuvoloso Molto Nuvoloso 18 13 72 1012 10 S/SO 14.8